TimeCST,TemperatureF,Dew PointF,Humidity,Sea Level PressureIn,VisibilityMPH,Wind Direction,Wind SpeedMPH,Gust SpeedMPH,PrecipitationIn,Events,Conditions,WindDirDegrees,DateUTC
12:15 AM,34.2,29.5,83,30.05,10.0,Calm,Calm,-,N/A,,Overcast,0,2013-12-01 06:15:00
12:35 AM,34.9,29.8,82,30.06,10.0,NW,4.6,-,N/A,,Overcast,310,2013-12-01 06:35:00
12:55 AM,35.6,29.1,77,30.06,10.0,NW,3.5,-,N/A,,Overcast,320,2013-12-01 06:55:00
1:15 AM,35.2,28.6,77,30.06,10.0,NW,3.5,-,N/A,,Overcast,320,2013-12-01 07:15:00
1:35 AM,34.7,29.1,80,30.06,10.0,Calm,Calm,-,N/A,,Overcast,0,2013-12-01 07:35:00
1:55 AM,33.4,28.8,83,30.07,10.0,NNW,4.6,-,N/A,,Mostly Cloudy,330,2013-12-01 07:55:00
2:15 AM,32.7,27.3,81,30.08,10.0,NW,3.5,-,N/A,,Mostly Cloudy,320,2013-12-01 08:15:00
2:35 AM,32.9,28.0,82,30.08,10.0,NW,4.6,-,N/A,,Mostly Cloudy,310,2013-12-01 08:35:00
2:55 AM,32.5,27.1,80,30.08,10.0,NNW,4.6,-,N/A,,Scattered Clouds,330,2013-12-01 08:55:00
3:15 AM,31.5,26.6,82,30.08,10.0,NNW,5.8,-,N/A,,Clear,330,2013-12-01 09:15:00
3:35 AM,31.5,27.0,83,30.07,10.0,NNW,3.5,-,N/A,,Clear,330,2013-12-01 09:35:00
3:55 AM,31.6,27.1,83,30.08,10.0,NW,3.5,-,N/A,,Clear,320,2013-12-01 09:55:00
4:15 AM,32.0,27.1,82,30.08,10.0,NNW,4.6,-,N/A,,Clear,340,2013-12-01 10:15:00
4:35 AM,32.0,27.3,83,30.08,10.0,NNW,4.6,-,N/A,,Clear,340,2013-12-01 10:35:00
4:55 AM,32.4,27.3,82,30.08,10.0,North,6.9,-,N/A,,Clear,350,2013-12-01 10:55:00
5:15 AM,32.5,27.1,80,30.10,10.0,North,5.8,-,N/A,,Clear,360,2013-12-01 11:15:00
5:35 AM,32.0,27.1,82,30.10,10.0,North,5.8,-,N/A,,Clear,350,2013-12-01 11:35:00
5:55 AM,32.0,27.0,82,30.11,10.0,North,6.9,-,N/A,,Clear,360,2013-12-01 11:55:00
6:15 AM,32.0,26.6,80,30.11,10.0,North,5.8,-,N/A,,Scattered Clouds,10,2013-12-01 12:15:00
6:35 AM,31.3,26.1,81,30.11,10.0,North,4.6,-,N/A,,Scattered Clouds,10,2013-12-01 12:35:00
6:55 AM,30.4,25.5,82,30.12,7.0,North,4.6,-,N/A,,Clear,10,2013-12-01 12:55:00
7:15 AM,28.8,24.8,85,30.11,7.0,NE,3.5,-,N/A,,Clear,40,2013-12-01 13:15:00
7:35 AM,27.9,24.1,86,30.12,5.0,NNE,4.6,-,N/A,,Clear,20,2013-12-01 13:35:00
7:55 AM,27.7,25.3,91,30.12,5.0,North,3.5,-,N/A,,Clear,10,2013-12-01 13:55:00
8:15 AM,31.1,26.4,83,30.13,7.0,North,4.6,-,N/A,,Clear,10,2013-12-01 14:15:00
8:35 AM,32.0,26.6,80,30.13,7.0,NNE,5.8,-,N/A,,Clear,30,2013-12-01 14:35:00
8:55 AM,32.9,26.6,78,30.13,7.0,NNE,8.1,-,N/A,,Clear,30,2013-12-01 14:55:00
9:15 AM,33.6,26.2,74,30.13,7.0,NNE,6.9,-,N/A,,Clear,30,2013-12-01 15:15:00
9:35 AM,34.5,26.4,72,30.13,10.0,NE,5.8,-,N/A,,Clear,40,2013-12-01 15:35:00
9:55 AM,35.6,26.1,68,30.13,10.0,NE,6.9,-,N/A,,Clear,40,2013-12-01 15:55:00
10:15 AM,36.9,25.7,64,30.14,10.0,Calm,Calm,-,N/A,,Clear,0,2013-12-01 16:15:00
10:35 AM,37.4,25.0,61,30.13,10.0,Calm,Calm,-,N/A,,Clear,0,2013-12-01 16:35:00
10:55 AM,37.9,25.0,60,30.12,10.0,Calm,Calm,-,N/A,,Clear,0,2013-12-01 16:55:00
11:15 AM,38.7,24.4,57,30.11,10.0,Calm,Calm,-,N/A,,Clear,0,2013-12-01 17:15:00
11:35 AM,39.4,24.4,55,30.10,10.0,North,3.5,-,N/A,,Clear,10,2013-12-01 17:35:00
11:55 AM,39.9,24.3,54,30.11,10.0,NNE,4.6,-,N/A,,Clear,30,2013-12-01 17:55:00
12:15 PM,39.7,23.5,52,30.10,10.0,NE,5.8,-,N/A,,Clear,50,2013-12-01 18:15:00
12:35 PM,39.7,23.7,53,30.09,10.0,NE,4.6,-,N/A,,Clear,40,2013-12-01 18:35:00
12:55 PM,40.1,23.7,52,30.08,10.0,North,3.5,-,N/A,,Clear,10,2013-12-01 18:55:00
1:15 PM,40.6,24.1,52,30.07,10.0,NE,4.6,-,N/A,,Clear,50,2013-12-01 19:15:00
1:35 PM,40.8,23.7,51,30.07,10.0,NNE,5.8,-,N/A,,Clear,30,2013-12-01 19:35:00
1:55 PM,40.6,23.4,50,30.07,10.0,Calm,Calm,-,N/A,,Clear,0,2013-12-01 19:55:00
2:15 PM,40.5,23.9,52,30.05,10.0,NE,4.6,-,N/A,,Clear,50,2013-12-01 20:15:00
2:35 PM,40.1,23.7,52,30.05,7.0,NNE,5.8,-,N/A,,Clear,30,2013-12-01 20:35:00
2:55 PM,39.6,24.1,54,30.05,10.0,Calm,Calm,-,N/A,,Clear,0,2013-12-01 20:55:00
3:15 PM,39.2,23.9,54,30.05,10.0,NE,3.5,-,N/A,,Clear,40,2013-12-01 21:15:00
3:35 PM,38.3,25.2,59,30.05,10.0,Calm,Calm,-,N/A,,Clear,0,2013-12-01 21:35:00
3:55 PM,36.1,25.5,65,30.03,10.0,NE,3.5,-,N/A,,Clear,50,2013-12-01 21:55:00
4:15 PM,36.5,24.6,62,30.04,10.0,Calm,Calm,-,N/A,,Clear,0,2013-12-01 22:15:00
4:35 PM,33.8,24.4,69,30.04,10.0,Calm,Calm,-,N/A,,Clear,0,2013-12-01 22:35:00
4:55 PM,32.0,25.2,76,30.04,10.0,Calm,Calm,-,N/A,,Clear,0,2013-12-01 22:55:00
5:15 PM,31.5,26.2,81,30.04,10.0,Calm,Calm,-,N/A,,Clear,0,2013-12-01 23:15:00
5:35 PM,30.6,26.8,86,30.03,10.0,Calm,Calm,-,N/A,,Clear,0,2013-12-01 23:35:00
5:55 PM,30.0,26.4,86,30.04,10.0,Calm,Calm,-,N/A,,Clear,0,2013-12-01 23:55:00
6:15 PM,27.9,24.3,86,30.04,10.0,Calm,Calm,-,N/A,,Clear,0,2013-12-02 00:15:00
6:35 PM,27.9,24.4,87,30.03,10.0,Calm,Calm,-,N/A,,Clear,0,2013-12-02 00:35:00
6:55 PM,28.8,25.9,89,30.03,7.0,Calm,Calm,-,N/A,,Scattered Clouds,0,2013-12-02 00:55:00
7:15 PM,29.3,27.3,92,30.03,7.0,Calm,Calm,-,N/A,,Scattered Clouds,0,2013-12-02 01:15:00
7:35 PM,27.7,25.3,91,30.03,7.0,Calm,Calm,-,N/A,,Mostly Cloudy,0,2013-12-02 01:35:00
7:55 PM,27.7,25.2,90,30.03,7.0,Calm,Calm,-,N/A,,Overcast,0,2013-12-02 01:55:00
8:15 PM,29.3,26.1,88,30.03,7.0,Calm,Calm,-,N/A,,Overcast,0,2013-12-02 02:15:00
8:35 PM,29.7,25.9,86,30.02,10.0,Calm,Calm,-,N/A,,Overcast,0,2013-12-02 02:35:00
8:55 PM,30.2,25.7,83,30.02,10.0,Calm,Calm,-,N/A,,Overcast,0,2013-12-02 02:55:00
9:15 PM,30.2,26.6,86,30.02,7.0,Calm,Calm,-,N/A,,Overcast,0,2013-12-02 03:15:00
9:35 PM,30.7,25.3,80,30.02,10.0,Calm,Calm,-,N/A,,Overcast,0,2013-12-02 03:35:00
9:55 PM,30.9,28.0,89,30.00,7.0,Calm,Calm,-,N/A,,Overcast,0,2013-12-02 03:55:00
10:15 PM,30.7,27.3,87,29.99,10.0,ESE,3.5,-,N/A,,Overcast,110,2013-12-02 04:15:00
10:35 PM,31.3,26.1,81,29.98,10.0,Calm,Calm,-,N/A,,Mostly Cloudy,0,2013-12-02 04:35:00
10:55 PM,31.5,26.4,82,29.98,10.0,Calm,Calm,-,N/A,,Scattered Clouds,0,2013-12-02 04:55:00
11:15 PM,32.0,26.4,80,29.98,10.0,Calm,Calm,-,N/A,,Mostly Cloudy,0,2013-12-02 05:15:00
11:35 PM,32.2,26.4,79,29.97,10.0,Calm,Calm,-,N/A,,Mostly Cloudy,0,2013-12-02 05:35:00
11:55 PM,32.0,25.9,78,29.97,10.0,Calm,Calm,-,N/A,,Mostly Cloudy,0,2013-12-02 05:55:00